Regional Weather Roundup
Issued by NWS

Home | Current Version | Previous Version | Graphics & Text | Print | Product List | Glossary On
Versions: 1 2 3 4 5 6 7 8 9 10 11 12 13 14 15 16 17 18 19 20 21 22 23 24 25 26 27 28 29 30 31 32 33 34 35 36 37 38 39 40 41 42 43 44 45 46 47 48 49 50
000
ASUS43 KFSD 212202
RWRSD

WEATHER ROUNDUP FOR SOUTH DAKOTA
NATIONAL WEATHER SERVICE SIOUX FALLS SD
500 PM CDT MON JUL 21 2014

NOTE: "FAIR" INDICATES FEW OR NO CLOUDS BELOW 12,000 FEET WITH NO
SIGNIFICANT WEATHER AND/OR OBSTRUCTIONS TO VISIBILITY.


SDZ001>005-009-010-012>017-212300-
NORTHWEST AND NORTH CENTRAL SOUTH DAKOTA

CITY           SKY/WX    TMP DP  RH WIND       PRES   REMARKS
BUFFALO          N/A     90  55  30 W22G32    29.80R
FAITH            N/A     96  61  31 NW21G28   29.78S HX  96
MOBRIDGE       MOSUNNY   92  74  55 SW10      29.67F HX 101
$$

SDZ012>016-024>037-041>051-057-063-072>074-212300-
SOUTHWEST AND SOUTH CENTRAL SOUTH DAKOTA

CITY           SKY/WX    TMP DP  RH WIND       PRES   REMARKS
RAPID CTY ARPT MOSUNNY   93  58  30 S7        29.86S
PIERRE         SUNNY    101  62  27 W17       29.71R HX 102
CUSTER         SUNNY     89  40  17 W17G30    30.07S
ELLSWORTH AFB  PTSUNNY   97  47  18 W13G20    29.86S
PHILIP         SUNNY    101  51  18 NW18G24   29.77S HX  98
PINE RIDGE     SUNNY     98  52  21 W8        29.89F HX  95
WINNER         FAIR     107  49  14 W18       29.77R HX 104
$$

SDZ004>011-016>023-039-040-212300-
NORTHEAST SOUTH DAKOTA

CITY           SKY/WX    TMP DP  RH WIND       PRES   REMARKS
ABERDEEN       PTSUNNY   88  76  67 S17G26    29.71F HX  99
WATERTOWN      PTSUNNY   86  75  69 SE18G28   29.76F HX  95
SISSETON         N/A     85  78  80 S12G25    29.71F HX  96
$$

SDZ017-020-022-023-036>040-048>070-212300-
SOUTHEAST SOUTH DAKOTA

CITY           SKY/WX    TMP DP  RH WIND       PRES   REMARKS
SIOUX FALLS    CLOUDY    87  78  74 S14       29.81S HX 100
HURON          SUNNY     91  76  61 S14G21    29.71F HX 103
CHAMBERLAIN    SUNNY    105  53  18 W18G25    29.72S HX 103
MITCHELL       MOSUNNY   93  77  59 S17       29.74F HX 107
YANKTON        PTSUNNY   91  79  66 SE9       29.78S HX 107
$$

ABBREVIATIONS USED IN REMARKS
   TC - TEMPERATURE IN CELSIUS
  WCI - WIND CHILL INDEX
   HX - HEAT INDEX
  VSB - VISIBILITY



USA.gov is the U.S. government's official web portal to all federal, state and local government web resources and services.